Regional Weather Roundup
Issued by NWS

Home | Current Version | Previous Version | Graphics & Text | Print | Product List | Glossary On
Versions: 1 2 3 4 5 6 7 8 9 10 11 12 13 14 15 16 17 18 19 20 21 22 23 24 25 26 27 28 29 30 31 32 33 34 35 36 37 38 39 40 41 42 43 44 45 46 47 48 49 50
044
ASUS44 KJAN 181403
RWRMS

MISSISSIPPI HOURLY WEATHER ROUNDUP
NATIONAL WEATHER SERVICE JACKSON MS
900 AM CDT FRI APR 18 2014

NOTE: "FAIR: INDICATES FEW OR NO CLOUDS BELOW 12,000 FEET WITH NO
SIGNIFICANT WEATHER AND/OR OBSTRUCTIONS TO VISIBILITY.

MSZ001>002-007>008-010>013-018>021-025>028-034>036-181500-
NORTHWEST MISSISSIPPI

CITY           SKY/WX    TMP DP  RH WIND       PRES   REMARKS
CLARKSDALE       N/A     59  54  82 CALM      30.25R
CLEVELAND      CLOUDY    61  56  84 E6        30.23S
GREENWOOD      CLOUDY    59  53  80 NE7       30.23S
GREENVILLE     CLOUDY    62  53  72 E7        30.22S
GRENADA        CLOUDY    55  54  94 NE3       30.25S
OXFORD         PTSUNNY   55  50  82 CALM      30.27S HAZE
TUNICA         MOSUNNY   63  50  63 CALM      30.25S
$$

MSZ003>006-009-014>017-022>024-029>033-037>039-181500-
NORTHEAST MISSISSIPPI

CITY           SKY/WX    TMP DP  RH WIND       PRES   REMARKS
BELMONT        FAIR      59  48  67 E7        30.26S
COLUMBUS AFB   CLOUDY    59  50  70 NE6       30.24S
CORINTH        CLOUDY    61  46  59 SE7       30.26S
GOLDN TRIANGLE CLOUDY    59  46  63 NE5       30.27R
STARKVILLE     CLOUDY    59  50  72 E3        30.24R
TUPELO         PTSUNNY   61  48  62 E7        30.25S
$$

MSZ040-058-181500-
CENTRAL MISSISSIPPI

CITY           SKY/WX    TMP DP  RH WIND       PRES   REMARKS
JACKSON INTL   CLOUDY    62  56  80 N8        30.19S
JACKSON HAWKNS CLOUDY    62  55  77 VRB3      30.20S
MERIDIAN KEY   CLOUDY    56  54  93 NE7       30.19S
MERIDIAN NAS   CLOUDY    57  52  83 NE9       30.20S
RAYMOND        CLOUDY    59  54  82 N3        30.20S
VICKSBURG      CLOUDY    62  55  77 N8        30.21R
$$

MSZ059>079-181500-
SOUTH MISSISSIPPI

CITY           SKY/WX    TMP DP  RH WIND       PRES   REMARKS
BROOKHAVEN     CLOUDY    59  57  94 N6        30.18F
COLUMBIA       CLOUDY    61  59  94 MISG      30.13S
HATTIESBURG    CLOUDY    60  58  92 N8        30.15R
MCCOMB         CLOUDY    62  56  80 N8        30.14F
NATCHEZ        CLOUDY    57  54  88 N7        30.18S
PINE BELT      CLOUDY    57  55  94 N9        30.16S
$$

MSZ080>082-181500-
COASTAL MISSISSIPPI

CITY           SKY/WX    TMP DP  RH WIND       PRES   REMARKS
BAY ST LOUIS   DRIZZLE   55  54  94 N6        30.10R
BILOXI         CLOUDY    61  60  96 NE16      30.08R
PASCAGOULA     LGT RAIN  60  59  96 N13       30.07S FOG
GULFPORT       LGT RAIN  63  59  87 NE13G21   30.08R FOG
$$



USA.gov is the U.S. government's official web portal to all federal, state and local government web resources and services.